Flag for Germany Weather past 2 weeks in Bottrop, North Rhine-Westphalia, Germany

Now
55 °F

Partly cloudy.


Feels Like: 53 °F
Forecast: 47 / 62 °F
Wind: 10 mph from South

Location: Duesseldorf

Current Time: May 28, 2015 at 6:23:41 AM

Latest Report: May 28, 2015 at 5:20 AM


Visibility: N/A

Pressure: 29.98 "Hg

Humidity: 63%

Dew point: 43 °F

Location of BottropLocation

Historic Weather in Bottrop — Graph

°F

Bottrop temperature yesterday

Maximum temperature yesterday: 64 °F (at 5:20 PM)
Minimum temperature yesterday: 48 °F (at 12:20 AM)
Average temperature yesterday: 57 °F

Past Weeks' High & Low Weather Summary

 TemperatureHumidityPressure
High70 °F (May 18, 2:50 PM)100% (May 16, 3:50 PM)30.33 "Hg (May 16, 3:50 PM)
Low37 °F (May 21, 4:20 AM)32% (May 13, 6:20 PM)29.65 "Hg (May 18, 6:20 PM)
Average55 °F65%30.07 "Hg
* Reported May 13 4:20 AM — May 28 4:50 AM, Bottrop, Weather by CustomWeather, © 2015

Note: Actual official high and low records may vary slightly from our data, if they occured in-between our weather recording intervals... More about our weather records

Advertising

Bottrop weather history for previous 24 hours

 ConditionsComfort  
Time TempWeatherWind HumidityBarometerVisibility
4:50 AM
Thu, May 28
55 °FPartly cloudy.13 mph63%29.98 "HgN/A
4:20 AM55 °FClear.13 mph63%29.98 "Hg10 mi
3:50 AM55 °FClear.10 mph63%29.98 "Hg10 mi
3:20 AM55 °FClear.12 mph63%30.01 "Hg10 mi
2:50 AM57 °FClear.13 mph55%30.01 "Hg10 mi
2:20 AM57 °FClear.10 mph55%30.01 "Hg10 mi
1:50 AM57 °FClear.14 mph55%30.04 "Hg10 mi
1:20 AM57 °FClear.12 mph55%30.04 "Hg10 mi
12:50 AM57 °FClear.13 mph55%30.04 "Hg10 mi
12:20 AM57 °FClear.12 mph55%30.04 "Hg10 mi
11:50 PM
Wed, May 27
57 °FClear.13 mph55%30.07 "Hg10 mi
11:20 PM57 °FClear.10 mph51%30.07 "Hg10 mi
10:50 PM59 °FClear.9 mph48%30.07 "Hg10 mi
10:20 PM59 °FSunny.9 mph48%30.07 "Hg10 mi
9:50 PM59 °FSunny.8 mph48%30.09 "Hg10 mi
9:20 PM61 °FSunny.12 mph45%30.09 "Hg10 mi
8:50 PM61 °FSunny.13 mph42%30.09 "Hg10 mi
8:20 PM63 °FSunny.13 mph42%30.09 "Hg10 mi
7:50 PM63 °FSunny.10 mph45%30.12 "Hg10 mi
7:20 PM63 °FSunny.9 mph42%30.12 "Hg10 mi
6:50 PM64 °FPassing clouds.8 mph37%30.12 "HgN/A
6:20 PM64 °FSunny.7 mph37%30.15 "Hg10 mi
5:50 PM64 °FSunny.3 mph40%30.15 "Hg10 mi
5:20 PM64 °FSunny.3 mph37%30.18 "Hg10 mi
4:50 PM63 °FSunny.5 mph42%30.18 "Hg10 mi
4:20 PM63 °FSunny.3 mph42%30.18 "Hg10 mi
3:50 PM63 °FSunny.6 mph42%30.18 "Hg10 mi
3:20 PM63 °FSunny.8 mph42%30.21 "Hg10 mi
2:50 PM63 °FSunny.7 mph42%30.21 "Hg10 mi
2:20 PM61 °FBroken clouds.6 mph45%30.21 "HgN/A
1:50 PM61 °FBroken clouds.2 mph48%30.21 "HgN/A
1:20 PM61 °FBroken clouds.3 mph42%30.24 "HgN/A
12:50 PM61 °FScattered clouds.3 mph42%30.24 "HgN/A
12:20 PM59 °FScattered clouds.5 mph48%30.24 "HgN/A
11:50 AM57 °FBroken clouds.6 mph51%30.27 "HgN/A
11:20 AM59 °FScattered clouds.3 mph48%30.27 "HgN/A
10:50 AM59 °FScattered clouds.2 mph48%30.27 "HgN/A
10:20 AM55 °FScattered clouds.2 mph55%30.27 "HgN/A
9:50 AM57 °FPassing clouds.5 mph48%30.27 "HgN/A
9:20 AM55 °FPartly sunny.5 mph55%30.27 "HgN/A
8:50 AM54 °FPartly sunny.3 mph67%30.27 "HgN/A
8:20 AM52 °FPartly sunny.3 mph72%30.27 "HgN/A
7:50 AM52 °FPartly sunny.5 mph72%30.24 "HgN/A
7:20 AM52 °FPartly sunny.1 mph72%30.24 "HgN/A
6:50 AM50 °FPartly sunny.2 mph76%30.24 "HgN/A
6:20 AM50 °FPassing clouds.3 mph76%30.24 "HgN/A
Weather by CustomWeather, © 2015

See weather overviewHow to use our weather pages